Location: Ústí nad Labem
(50.6611°N, 14.0531°E)
Time: 21:50:21
(UTC+02:00)

Tiros 1 - All Passes

Search period start: 19 April 2024 00:00
Search period end: 29 April 2024 00:00
Orbit: 625 x 657 km, 48.4° (Epoch: 19 April)

Date Brightness Start Highest point End Pass type
(mag) Time Alt. Az. Time Alt. Az. Time Alt. Az.
19 Apr - 01:46:19 10° SSW 01:50:16 28° SSE 01:54:13 10° E visible
19 Apr - 03:27:18 10° WSW 03:31:52 60° S 03:36:24 10° E visible
19 Apr - 05:09:11 10° W 05:13:44 62° S 05:18:16 10° ESE visible
19 Apr - 06:51:19 10° W 06:55:21 31° SSW 06:59:23 10° SSE daylight
20 Apr - 00:30:11 10° S 00:32:53 15° SE 00:35:34 10° ESE night (unlit)
20 Apr - 02:09:45 10° SW 02:14:08 43° SSE 02:18:30 10° E visible
20 Apr - 03:51:19 10° W 03:55:55 67° S 04:00:29 10° E visible
20 Apr - 05:33:18 10° W 05:37:45 49° SSW 05:42:10 10° SE daylight
20 Apr - 07:15:54 10° W 07:19:06 19° SW 07:22:18 10° S daylight
21 Apr - 00:52:43 10° SSW 00:56:34 26° SSE 01:00:24 10° E visible
21 Apr - 02:33:34 10° WSW 02:38:07 58° SSE 02:42:38 10° E visible
21 Apr - 04:15:24 10° W 04:19:59 64° S 04:24:32 10° ESE visible
21 Apr - 05:57:30 10° W 06:01:39 33° SSW 06:05:46 10° SE daylight
21 Apr - 23:36:52 10° S 23:39:11 14° SE 23:41:31 10° ESE night (unlit)
22 Apr - 01:16:03 10° SW 01:20:24 40° SSE 01:24:43 10° E visible
22 Apr - 02:57:33 10° WSW 03:02:09 67° S 03:06:44 10° E visible
22 Apr - 04:39:30 10° W 04:44:00 51° SSW 04:48:27 10° ESE visible
22 Apr - 06:21:59 10° W 06:25:24 21° SW 06:28:49 10° SSE daylight
22 Apr - 23:59:07 10° SSW 00:02:51 24° SSE 00:06:34 10° E night (unlit)
23 Apr - 01:39:48 10° WSW 01:44:21 55° SSE 01:48:52 10° E visible
23 Apr - 03:21:37 10° W 03:26:13 65° S 03:30:46 10° ESE visible
23 Apr - 05:03:41 10° W 05:07:55 36° SSW 05:12:06 10° SE visible
23 Apr - 06:47:33 10° WSW 06:49:00 11° SW 06:50:28 10° SSW daylight
23 Apr - 22:43:39 10° SSE 22:45:29 12° SE 22:47:20 10° ESE night (unlit)
24 Apr - 00:22:21 10° SW 00:26:39 37° SSE 00:30:55 10° E visible
24 Apr - 02:03:45 10° WSW 02:08:22 66° S 02:12:57 10° E visible
24 Apr - 03:45:42 10° W 03:50:14 54° SSW 03:54:43 10° ESE visible
24 Apr - 05:28:04 10° W 05:31:41 23° SW 05:35:17 10° SSE daylight
24 Apr - 23:05:33 10° SSW 23:09:06 22° SE 23:12:40 10° E night (unlit)
25 Apr - 00:46:02 10° WSW 00:50:34 53° SSE 00:55:04 10° E visible
25 Apr - 02:27:48 10° W 02:32:25 67° S 02:37:00 10° ESE visible
25 Apr - 04:09:51 10° W 04:14:09 39° SSW 04:18:25 10° SE visible
25 Apr - 05:53:14 10° WSW 05:55:19 13° SW 05:57:24 10° SSW daylight
25 Apr - 21:50:43 10° SSE 21:51:47 11° SE 21:52:52 10° ESE night (unlit)
25 Apr - 23:28:38 10° SW 23:32:52 35° SSE 23:37:05 10° E night (unlit)
26 Apr - 01:09:57 10° WSW 01:14:34 65° S 01:19:09 10° E visible
26 Apr - 02:51:53 10° W 02:56:26 57° SSW 03:00:57 10° ESE visible
26 Apr - 04:34:10 10° W 04:37:57 25° SSW 04:41:43 10° SSE visible
26 Apr - 22:11:59 10° S 22:15:22 20° SE 22:18:44 10° E visible
26 Apr - 23:52:14 10° WSW 23:56:46 50° SSE 00:01:15 10° E night (unlit)
27 Apr - 01:33:59 10° W 01:38:36 67° S 01:43:12 10° E visible
27 Apr - 03:16:00 10° W 03:20:22 42° SSW 03:24:43 10° SE visible
27 Apr - 04:59:03 10° WSW 05:01:36 15° SW 05:04:07 10° S visible
27 Apr - 22:34:56 10° SW 22:39:05 32° SSE 22:43:14 10° E visible
28 Apr - 00:16:07 10° WSW 00:20:45 63° S 00:25:19 10° E visible
28 Apr - 01:58:02 10° W 02:02:38 59° SSW 02:07:10 10° ESE visible
28 Apr - 03:40:16 10° W 03:44:12 28° SSW 03:48:05 10° SSE visible
28 Apr - 21:18:27 10° S 21:21:37 18° SE 21:24:46 10° E visible
28 Apr - 22:58:27 10° SW 23:02:57 47° SSE 23:07:25 10° E visible
